Time,TemperatureF,DewpointF,PressureIn,WindDirection,WindDirectionDegrees,WindSpeedMPH,WindSpeedGustMPH,Humidity,HourlyPrecipIn,Conditions,Clouds,dailyrainin,SoftwareType,DateUTC
2013-01-30 00:02:00,30.0,28.0,29.66,North,350,19.0,26.0,94,0.00,,,0.00,,2013-01-30 06:02:00,
2013-01-30 00:11:00,30.0,28.0,29.66,North,350,19.0,26.0,94,0.00,,,0.00,,2013-01-30 06:11:00,
2013-01-30 00:21:00,30.0,29.0,29.63,North,353,19.0,27.0,95,0.00,,,0.00,,2013-01-30 06:21:00,
2013-01-30 00:32:00,30.0,29.0,29.67,North,352,14.0,20.0,96,0.00,,,0.00,,2013-01-30 06:32:00,
2013-01-30 00:41:00,30.0,29.0,29.67,North,352,14.0,20.0,96,0.00,,,0.00,,2013-01-30 06:41:00,
2013-01-30 00:51:00,29.0,28.0,29.68,NNW,343,18.0,22.0,96,0.01,,,0.01,,2013-01-30 06:51:00,
2013-01-30 01:02:00,28.0,27.0,29.69,NNW,343,21.0,28.0,97,0.01,,,0.01,,2013-01-30 07:02:00,
2013-01-30 01:11:00,28.0,27.0,29.69,NNW,343,21.0,28.0,97,0.01,,,0.01,,2013-01-30 07:11:00,
2013-01-30 01:21:00,28.0,27.0,29.69,North,357,17.0,20.0,97,0.01,,,0.01,,2013-01-30 07:21:00,
2013-01-30 01:32:00,27.0,26.0,29.68,NNW,339,19.0,31.0,97,0.01,,,0.01,,2013-01-30 07:32:00,
2013-01-30 01:41:00,27.0,26.0,29.68,NNW,339,19.0,31.0,97,0.01,,,0.01,,2013-01-30 07:41:00,
2013-01-30 01:52:00,27.0,26.0,29.68,NNW,345,21.0,28.0,97,0.00,,,0.01,,2013-01-30 07:52:00,
2013-01-30 02:01:00,26.0,25.0,29.69,NNW,342,19.0,31.0,97,0.00,,,0.01,,2013-01-30 08:01:00,
2013-01-30 02:11:00,26.0,25.0,29.69,NNW,342,19.0,31.0,97,0.00,,,0.01,,2013-01-30 08:11:00,
2013-01-30 02:21:00,25.0,24.0,29.69,North,357,17.0,27.0,97,0.00,,,0.01,,2013-01-30 08:21:00,
2013-01-30 02:32:00,25.0,24.0,29.70,North,352,15.0,17.0,97,0.00,,,0.01,,2013-01-30 08:32:00,
2013-01-30 02:42:00,25.0,24.0,29.70,North,352,15.0,17.0,97,0.00,,,0.01,,2013-01-30 08:42:00,
2013-01-30 02:52:00,25.0,24.0,29.70,NNW,347,14.0,23.0,97,0.00,,,0.01,,2013-01-30 08:52:00,
2013-01-30 03:01:00,25.0,24.0,29.70,North,351,16.0,19.0,97,0.00,,,0.01,,2013-01-30 09:01:00,
2013-01-30 03:11:00,25.0,24.0,29.70,North,351,16.0,19.0,97,0.00,,,0.01,,2013-01-30 09:11:00,
2013-01-30 03:21:00,25.0,24.0,29.71,NW,325,17.0,24.0,96,0.01,,,0.02,,2013-01-30 09:21:00,
2013-01-30 03:32:00,24.0,23.0,29.72,NNW,335,24.0,32.0,96,0.01,,,0.02,,2013-01-30 09:32:00,
2013-01-30 03:41:00,24.0,23.0,29.72,NNW,335,24.0,32.0,96,0.01,,,0.02,,2013-01-30 09:41:00,
2013-01-30 03:51:00,24.0,23.0,29.73,NNW,335,15.0,19.0,96,0.01,,,0.02,,2013-01-30 09:51:00,
2013-01-30 04:01:00,24.0,23.0,29.73,NNW,340,19.0,23.0,96,0.01,,,0.02,,2013-01-30 10:01:00,
2013-01-30 04:11:00,24.0,23.0,29.73,NNW,340,19.0,23.0,96,0.01,,,0.02,,2013-01-30 10:11:00,
2013-01-30 04:21:00,24.0,23.0,29.73,NNW,339,18.0,21.0,96,0.00,,,0.02,,2013-01-30 10:21:00,
2013-01-30 04:32:00,23.0,22.0,29.73,NNW,334,19.0,33.0,96,0.00,,,0.02,,2013-01-30 10:32:00,
2013-01-30 04:41:00,23.0,22.0,29.73,NNW,334,19.0,33.0,96,0.00,,,0.02,,2013-01-30 10:41:00,
2013-01-30 04:52:00,23.0,22.0,29.73,North,349,19.0,25.0,96,0.00,,,0.02,,2013-01-30 10:52:00,
2013-01-30 05:02:00,23.0,22.0,29.73,NNW,334,19.0,25.0,96,0.00,,,0.02,,2013-01-30 11:02:00,
2013-01-30 05:11:00,23.0,22.0,29.73,NNW,334,19.0,25.0,96,0.00,,,0.02,,2013-01-30 11:11:00,
2013-01-30 05:22:00,23.0,22.0,29.73,NNW,328,19.0,25.0,96,0.00,,,0.02,,2013-01-30 11:22:00,
2013-01-30 05:32:00,23.0,22.0,29.74,NNW,344,18.0,22.0,96,0.00,,,0.02,,2013-01-30 11:32:00,
2013-01-30 05:42:00,23.0,22.0,29.74,NNW,344,18.0,22.0,96,0.00,,,0.02,,2013-01-30 11:42:00,
2013-01-30 05:52:00,23.0,22.0,29.74,North,350,16.0,21.0,96,0.00,,,0.02,,2013-01-30 11:52:00,
2013-01-30 06:02:00,22.0,21.0,29.75,North,357,18.0,23.0,96,0.00,,,0.02,,2013-01-30 12:02:00,
2013-01-30 06:12:00,22.0,21.0,29.75,North,357,18.0,23.0,96,0.00,,,0.02,,2013-01-30 12:12:00,
2013-01-30 06:22:00,22.0,21.0,29.75,NNW,348,15.0,22.0,96,0.00,,,0.02,,2013-01-30 12:22:00,
2013-01-30 06:32:00,22.0,21.0,29.76,NNW,345,21.0,31.0,95,0.00,,,0.02,,2013-01-30 12:32:00,
2013-01-30 06:42:00,22.0,21.0,29.76,NNW,345,21.0,31.0,95,0.00,,,0.02,,2013-01-30 12:42:00,
2013-01-30 07:03:00,21.0,19.0,29.76,NNW,338,21.0,27.0,90,0.00,,,0.02,,2013-01-30 13:03:00,
2013-01-30 07:12:00,21.0,19.0,29.76,NNW,338,21.0,27.0,90,0.00,,,0.02,,2013-01-30 13:12:00,
2013-01-30 07:23:00,22.0,20.0,29.76,NNW,340,20.0,27.0,90,0.00,,,0.02,,2013-01-30 13:23:00,
2013-01-30 07:32:00,22.0,19.0,29.77,NNW,340,20.0,26.0,88,0.00,,,0.02,,2013-01-30 13:32:00,
2013-01-30 07:42:00,22.0,19.0,29.77,NNW,340,20.0,26.0,88,0.00,,,0.02,,2013-01-30 13:42:00,
2013-01-30 07:52:00,22.0,19.0,29.77,NNW,332,20.0,29.0,89,0.00,,,0.02,,2013-01-30 13:52:00,
2013-01-30 08:02:00,22.0,19.0,29.78,NNW,329,18.0,29.0,88,0.00,,,0.02,,2013-01-30 14:02:00,
2013-01-30 08:12:00,22.0,19.0,29.78,NNW,329,18.0,29.0,88,0.00,,,0.02,,2013-01-30 14:12:00,
2013-01-30 08:22:00,22.0,19.0,29.79,NNW,329,18.0,25.0,87,0.00,,,0.02,,2013-01-30 14:22:00,
2013-01-30 08:33:00,22.0,19.0,29.80,NW,326,20.0,29.0,89,0.00,,,0.02,,2013-01-30 14:33:00,
2013-01-30 08:42:00,22.0,19.0,29.80,NW,326,20.0,29.0,89,0.00,,,0.02,,2013-01-30 14:42:00,
2013-01-30 08:52:00,21.0,19.0,29.81,NNW,336,19.0,23.0,91,0.00,,,0.02,,2013-01-30 14:52:00,
2013-01-30 09:03:00,21.0,18.0,29.82,NW,318,18.0,29.0,89,0.00,,,0.02,,2013-01-30 15:03:00,
2013-01-30 09:12:00,21.0,18.0,29.82,NW,318,18.0,29.0,89,0.00,,,0.02,,2013-01-30 15:12:00,
2013-01-30 09:23:00,21.0,18.0,29.83,NNW,330,19.0,23.0,89,0.00,,,0.02,,2013-01-30 15:23:00,
2013-01-30 09:33:00,21.0,17.0,29.83,NNW,334,24.0,31.0,83,0.00,,,0.02,,2013-01-30 15:33:00,
2013-01-30 09:43:00,21.0,17.0,29.83,NNW,334,24.0,31.0,83,0.00,,,0.02,,2013-01-30 15:43:00,
2013-01-30 09:52:00,21.0,17.0,29.83,NNW,339,20.0,26.0,83,0.00,,,0.02,,2013-01-30 15:52:00,
2013-01-30 10:03:00,21.0,16.0,29.83,NNW,330,20.0,26.0,81,0.00,,,0.02,,2013-01-30 16:03:00,
2013-01-30 10:12:00,21.0,16.0,29.83,NNW,330,20.0,26.0,81,0.00,,,0.02,,2013-01-30 16:12:00,
2013-01-30 10:23:00,21.0,16.0,29.83,NNW,336,14.0,17.0,80,0.00,,,0.02,,2013-01-30 16:23:00,
2013-01-30 10:32:00,21.0,16.0,29.84,NNW,327,17.0,22.0,80,0.00,,,0.02,,2013-01-30 16:32:00,
2013-01-30 10:42:00,21.0,16.0,29.84,NNW,327,17.0,22.0,80,0.00,,,0.02,,2013-01-30 16:42:00,
2013-01-30 10:52:00,21.0,16.0,29.84,NNW,327,17.0,22.0,80,0.00,,,0.02,,2013-01-30 16:52:00,
2013-01-30 11:02:00,22.0,17.0,29.85,NW,325,17.0,20.0,82,0.00,,,0.02,,2013-01-30 17:02:00,
2013-01-30 11:12:00,22.0,17.0,29.85,NW,325,17.0,20.0,82,0.00,,,0.02,,2013-01-30 17:12:00,
2013-01-30 11:22:00,22.0,18.0,29.84,NW,319,18.0,22.0,84,0.00,,,0.02,,2013-01-30 17:22:00,
2013-01-30 11:32:00,22.0,17.0,29.84,NNW,330,14.0,26.0,82,0.00,,,0.02,,2013-01-30 17:32:00,
2013-01-30 11:42:00,22.0,17.0,29.84,NNW,330,14.0,26.0,82,0.00,,,0.02,,2013-01-30 17:42:00,
2013-01-30 11:53:00,22.0,17.0,29.84,NNW,339,18.0,20.0,80,0.00,,,0.02,,2013-01-30 17:53:00,
2013-01-30 12:02:00,21.0,16.0,29.84,NW,322,21.0,28.0,82,0.00,,,0.02,,2013-01-30 18:02:00,
2013-01-30 12:12:00,21.0,16.0,29.84,NW,322,21.0,28.0,82,0.00,,,0.02,,2013-01-30 18:12:00,
2013-01-30 12:22:00,22.0,17.0,29.84,NW,319,15.0,20.0,81,0.00,,,0.02,,2013-01-30 18:22:00,
2013-01-30 12:33:00,22.0,17.0,29.84,NW,320,17.0,21.0,81,0.00,,,0.02,,2013-01-30 18:33:00,
2013-01-30 12:42:00,22.0,17.0,29.84,NW,320,17.0,21.0,81,0.00,,,0.02,,2013-01-30 18:42:00,
2013-01-30 12:52:00,22.0,17.0,29.83,NW,314,18.0,24.0,81,0.00,,,0.02,,2013-01-30 18:52:00,
2013-01-30 13:02:00,22.0,17.0,29.84,NNW,330,16.0,20.0,80,0.00,,,0.02,,2013-01-30 19:02:00,
2013-01-30 13:12:00,22.0,17.0,29.84,NNW,330,16.0,20.0,80,0.00,,,0.02,,2013-01-30 19:12:00,
2013-01-30 13:22:00,22.0,16.0,29.84,NW,316,21.0,23.0,79,0.00,,,0.02,,2013-01-30 19:22:00,
2013-01-30 13:32:00,22.0,16.0,29.84,NW,308,18.0,28.0,78,0.00,,,0.02,,2013-01-30 19:32:00,
2013-01-30 13:43:00,22.0,16.0,29.84,NW,308,18.0,28.0,78,0.00,,,0.02,,2013-01-30 19:43:00,
2013-01-30 13:52:00,23.0,17.0,29.84,NNW,328,18.0,21.0,78,0.00,,,0.02,,2013-01-30 19:52:00,
2013-01-30 14:03:00,23.0,17.0,29.84,NW,323,20.0,25.0,78,0.00,,,0.02,,2013-01-30 20:03:00,
2013-01-30 14:12:00,23.0,17.0,29.84,NW,323,20.0,25.0,78,0.00,,,0.02,,2013-01-30 20:12:00,
2013-01-30 14:22:00,23.0,17.0,29.83,NW,322,18.0,23.0,77,0.00,,,0.02,,2013-01-30 20:22:00,
2013-01-30 14:33:00,23.0,16.0,29.83,NW,326,19.0,24.0,74,0.00,,,0.02,,2013-01-30 20:33:00,
2013-01-30 14:42:00,23.0,16.0,29.83,NW,326,19.0,24.0,74,0.00,,,0.02,,2013-01-30 20:42:00,
2013-01-30 14:52:00,23.0,16.0,29.83,NW,319,15.0,18.0,73,0.00,,,0.02,,2013-01-30 20:52:00,
2013-01-30 15:03:00,24.0,16.0,29.83,NW,326,17.0,21.0,72,0.00,,,0.02,,2013-01-30 21:03:00,
2013-01-30 15:12:00,24.0,16.0,29.83,NW,326,17.0,21.0,72,0.00,,,0.02,,2013-01-30 21:12:00,
2013-01-30 15:22:00,24.0,17.0,29.84,NNW,336,12.0,20.0,73,0.00,,,0.02,,2013-01-30 21:22:00,
2013-01-30 15:32:00,24.0,16.0,29.84,NNW,337,16.0,24.0,72,0.00,,,0.02,,2013-01-30 21:32:00,
2013-01-30 15:42:00,24.0,16.0,29.84,NNW,337,16.0,24.0,72,0.00,,,0.02,,2013-01-30 21:42:00,
2013-01-30 15:52:00,23.0,15.0,29.84,NW,320,16.0,20.0,71,0.00,,,0.02,,2013-01-30 21:52:00,
2013-01-30 16:03:00,23.0,16.0,29.85,NW,325,8.0,14.0,74,0.00,,,0.02,,2013-01-30 22:03:00,
2013-01-30 16:12:00,23.0,16.0,29.85,NW,325,8.0,14.0,74,0.00,,,0.02,,2013-01-30 22:12:00,
2013-01-30 16:22:00,23.0,16.0,29.85,NW,325,10.0,14.0,74,0.00,,,0.02,,2013-01-30 22:22:00,
2013-01-30 16:32:00,23.0,16.0,29.86,NNW,330,11.0,12.0,73,0.00,,,0.02,,2013-01-30 22:32:00,
2013-01-30 16:42:00,23.0,16.0,29.86,NNW,330,11.0,12.0,73,0.00,,,0.02,,2013-01-30 22:42:00,
2013-01-30 16:52:00,23.0,16.0,29.86,NW,311,13.0,19.0,73,0.00,,,0.02,,2013-01-30 22:52:00,
2013-01-30 17:02:00,23.0,16.0,29.86,NW,323,9.0,13.0,75,0.00,,,0.02,,2013-01-30 23:02:00,
2013-01-30 17:12:00,23.0,16.0,29.86,NW,323,9.0,13.0,75,0.00,,,0.02,,2013-01-30 23:12:00,
2013-01-30 17:22:00,22.0,15.0,29.87,NW,324,10.0,14.0,75,0.00,,,0.02,,2013-01-30 23:22:00,
2013-01-30 17:32:00,22.0,15.0,29.87,NNW,329,9.0,12.0,75,0.00,,,0.02,,2013-01-30 23:32:00,
2013-01-30 17:42:00,22.0,15.0,29.87,NNW,329,9.0,12.0,75,0.00,,,0.02,,2013-01-30 23:42:00,
2013-01-30 17:52:00,22.0,16.0,29.87,NNW,333,5.0,8.0,76,0.00,,,0.02,,2013-01-30 23:52:00,
2013-01-30 18:02:00,21.0,15.0,29.87,NNW,333,6.0,6.0,77,0.00,,,0.02,,2013-01-31 00:02:00,
2013-01-30 18:11:00,21.0,15.0,29.87,NNW,333,6.0,6.0,77,0.00,,,0.02,,2013-01-31 00:11:00,
2013-01-30 18:21:00,21.0,15.0,29.87,NNW,336,6.0,7.0,78,0.00,,,0.02,,2013-01-31 00:21:00,
2013-01-30 18:32:00,21.0,15.0,29.88,NW,326,7.0,9.0,78,0.00,,,0.02,,2013-01-31 00:32:00,
2013-01-30 18:42:00,21.0,15.0,29.88,NW,326,7.0,9.0,78,0.00,,,0.02,,2013-01-31 00:42:00,
2013-01-30 18:52:00,21.0,15.0,29.88,NNW,335,5.0,7.0,78,0.00,,,0.02,,2013-01-31 00:52:00,
2013-01-30 19:02:00,20.0,15.0,29.88,NW,312,4.0,6.0,79,0.00,,,0.02,,2013-01-31 01:02:00,
2013-01-30 19:11:00,20.0,15.0,29.88,NW,312,4.0,6.0,79,0.00,,,0.02,,2013-01-31 01:11:00,
2013-01-30 19:21:00,19.0,14.0,29.88,NW,325,5.0,6.0,81,0.00,,,0.02,,2013-01-31 01:21:00,
2013-01-30 19:32:00,19.0,14.0,29.88,NNW,336,4.0,5.0,82,0.00,,,0.02,,2013-01-31 01:32:00,
2013-01-30 19:41:00,19.0,14.0,29.88,NNW,336,4.0,5.0,82,0.00,,,0.02,,2013-01-31 01:41:00,
2013-01-30 19:52:00,19.0,14.0,29.88,NNW,336,5.0,7.0,82,0.00,,,0.02,,2013-01-31 01:52:00,
2013-01-30 20:01:00,18.0,14.0,29.89,NNW,343,8.0,12.0,83,0.00,,,0.02,,2013-01-31 02:01:00,
2013-01-30 20:11:00,18.0,14.0,29.89,NNW,343,8.0,12.0,83,0.00,,,0.02,,2013-01-31 02:11:00,
2013-01-30 20:21:00,18.0,14.0,29.88,NNW,348,7.0,8.0,84,0.00,,,0.02,,2013-01-31 02:21:00,
2013-01-30 20:32:00,17.0,13.0,29.89,NNW,335,10.0,12.0,85,0.00,,,0.02,,2013-01-31 02:32:00,
2013-01-30 20:41:00,17.0,13.0,29.89,NNW,335,10.0,12.0,85,0.00,,,0.02,,2013-01-31 02:41:00,
2013-01-30 20:52:00,17.0,13.0,29.89,NNW,335,10.0,12.0,85,0.00,,,0.02,,2013-01-31 02:52:00,
2013-01-30 21:03:00,17.0,13.0,29.89,NNW,344,8.0,10.0,84,0.00,,,0.02,,2013-01-31 03:03:00,
2013-01-30 21:11:00,17.0,13.0,29.89,NNW,344,8.0,10.0,84,0.00,,,0.02,,2013-01-31 03:11:00,
2013-01-30 21:21:00,17.0,13.0,29.89,NNW,346,8.0,8.0,84,0.00,,,0.02,,2013-01-31 03:21:00,
2013-01-30 21:32:00,16.0,12.0,29.89,NNW,345,8.0,11.0,85,0.00,,,0.02,,2013-01-31 03:32:00,
2013-01-30 21:41:00,16.0,12.0,29.89,NNW,345,8.0,11.0,85,0.00,,,0.02,,2013-01-31 03:41:00,
2013-01-30 21:51:00,16.0,12.0,29.90,North,350,7.0,9.0,85,0.00,,,0.02,,2013-01-31 03:51:00,
2013-01-30 22:02:00,16.0,13.0,29.91,NNW,334,6.0,8.0,86,0.00,,,0.02,,2013-01-31 04:02:00,
2013-01-30 22:11:00,16.0,13.0,29.91,NNW,334,6.0,8.0,86,0.00,,,0.02,,2013-01-31 04:11:00,
2013-01-30 22:22:00,16.0,12.0,29.91,NNW,337,8.0,9.0,85,0.00,,,0.02,,2013-01-31 04:22:00,
2013-01-30 22:31:00,15.0,11.0,29.91,NNW,336,9.0,10.0,84,0.00,,,0.02,,2013-01-31 04:31:00,
2013-01-30 22:41:00,15.0,11.0,29.91,NNW,336,9.0,10.0,84,0.00,,,0.02,,2013-01-31 04:41:00,
2013-01-30 22:51:00,15.0,11.0,29.91,NNW,328,8.0,10.0,84,0.00,,,0.02,,2013-01-31 04:51:00,
2013-01-30 23:03:00,15.0,11.0,29.92,NNW,342,7.0,8.0,85,0.00,,,0.02,,2013-01-31 05:03:00,
2013-01-30 23:11:00,15.0,11.0,29.92,NNW,342,7.0,8.0,85,0.00,,,0.02,,2013-01-31 05:11:00,
2013-01-30 23:22:00,14.0,10.0,29.92,NNW,344,9.0,10.0,85,0.00,,,0.02,,2013-01-31 05:22:00,
2013-01-30 23:32:00,14.0,10.0,29.92,NNW,344,9.0,10.0,85,0.00,,,0.02,,2013-01-31 05:32:00,
2013-01-30 23:41:00,13.0,9.0,29.93,North,352,7.0,10.0,85,0.00,,,0.02,,2013-01-31 05:41:00,
2013-01-30 23:52:00,13.0,9.0,29.93,North,352,7.0,10.0,85,0.00,,,0.02,,2013-01-31 05:52:00,